Snowfall_Accumulation
0.0 0.0 0.0 0.0 0.0 0.0 0.0 0.0 0.0 0.0 0.0 0.0 0.0 0.0 0.0 0.0 0.0 0.0 0.0 0.0 0.0 0.0 0.0 0.0 0.0 0.0 0.0 0.0 0.0 0.0 0.0 0.0 0.0 0.0 0.0 0.0 0.0 0.0 0.0 0.0 0.0 0.0 0.0 0.0
0.0 0.0 0.0 0.0 0.0 0.0 0.0 0.0 0.0 0.0 0.0 0.0 0.0 0.0 0.0 0.0 0.0 0.0 0.0 0.0 0.0 0.0 0.0 0.0 0.0 0.0 0.0 0.0 0.0 0.0 0.0 0.0 0.0 0.0 0.0 0.0 0.0 0.0 0.0 0.0 0.0 0.0 0.0 0.0
0.4 0.0 0.0 0.3 0.0 0.0 0.0 0.0 0.0 0.0 0.0 0.0 0.0 0.0 0.0 0.0 0.0 0.0 0.0 0.0 0.0 0.0 0.0 0.0 0.0 0.0 0.0 0.0 0.0 0.0 0.0 0.0 0.0 0.0 0.0 0.0 0.0 0.0 0.0 0.0 0.0 0.0 0.0 0.0
1.3 0.6 3.4 0.0 0.0 0.0 0.0 0.0 0.0 0.0 0.0 0.0 0.0 0.0 0.0 0.0 0.0 0.0 0.0 0.0 0.0 0.0 0.0 0.0 0.0 0.0 0.0 0.0 0.0 0.0 0.0 0.0 0.0 0.0 0.0 0.0 0.0 0.0 0.0 0.0 0.0 0.0 0.0 0.0
3.3 1.9 0.4 0.0 0.0 0.0 0.0 0.0 0.0 0.0 0.0 0.0 0.0 0.0 0.0 0.0 0.0 0.0 0.0 0.0 0.0 0.0 0.0 0.0 0.0 0.0 0.0 0.0 0.0 0.0 0.0 0.0 0.0 0.0 0.0 0.0 0.0 0.0 0.0 0.0 0.0 0.0 0.0 0.0
1.5 0.5 2.6 0.0 0.0 0.0 0.0 0.0 0.0 0.0 0.0 0.0 0.0 0.0 0.0 0.0 0.0 0.0 0.0 0.0 0.0 0.0 0.0 0.0 0.0 0.0 0.0 0.0 0.0 0.0 0.0 0.0 0.0 0.0 0.0 0.0 0.0 0.0 0.0 0.0 0.0 0.0 0.0 0.0
0.7 1.4 0.3 0.0 0.0 0.0 0.6 0.1 0.0 0.0 0.0 0.0 0.0 0.0 0.0 0.0 0.0 0.0 0.0 0.0 0.0 0.0 0.0 0.0 0.0 0.0 0.0 0.0 0.0 0.0 0.0 0.0 0.0 0.0 0.0 0.0 0.0 0.0 0.0 0.0 0.0 0.0 0.0 0.0
1.0 1.0 1.5 0.0 0.0 0.0 0.0 0.0 0.0 0.0 0.0 0.0 0.0 0.0 0.0 0.0 0.0 0.0 0.0 0.0 0.0 0.0 0.0 0.0 0.0 0.0 0.0 0.0 0.0 0.0 0.0 0.0 0.0 0.0 0.0 0.0 0.0 0.0 0.0 0.0 0.0 0.0 0.2 0.3
0.1 0.3 0.0 0.0 0.0 0.0 0.0 0.0 0.0 0.0 0.0 0.0 0.0 0.0 0.0 0.0 0.0 0.0 0.0 0.0 0.0 0.0 0.0 0.0 0.0 0.0 0.0 0.0 0.0 0.0 0.0 0.0 0.0 0.0 0.0 0.0 0.0 0.0 0.0 0.0 0.2 0.1 0.4 0.8
0.0 0.0 0.0 0.0 0.0 0.0 0.0 0.0 0.0 0.0 0.0 0.0 0.0 0.0 0.0 0.0 0.0 0.0 0.0 0.0 0.0 0.0 0.0 0.0 0.0 0.0 0.0 0.0 0.0 0.0 0.0 0.0 0.0 0.0 0.0 0.0 0.0 0.0 0.0 0.2 0.5 0.5 0.6 0.6
0.0 0.0 0.0 0.0 0.0 0.0 0.0 0.0 0.0 0.0 0.0 0.0 0.0 0.0 0.0 0.0 0.0 0.0 0.0 0.0 0.0 0.0 0.0 0.0 0.0 0.0 0.0 0.0 0.0 0.0 0.0 0.0 0.0 0.0 0.0 0.0 0.0 0.0 0.2 0.1 0.4 0.6 0.6 1.2
0.1 0.0 0.0 0.0 0.0 0.0 0.0 0.0 0.0 0.0 0.0 0.0 0.0 0.0 0.0 0.0 0.0 0.0 0.0 0.0 0.0 0.0 0.0 0.0 0.0 0.0 0.0 0.0 0.0 0.0 0.0 0.0 0.2 0.2 0.2 0.0 0.0 0.1 nan nan nan nan nan 1.9
0.0 0.0 0.0 0.0 0.0 0.0 0.0 0.0 0.0 0.0 0.0 0.0 0.0 0.0 0.0 0.0 0.0 nan 0.0 0.0 0.1 0.2 0.3 0.3 0.1 0.1 0.0 0.0 0.0 0.0 0.0 0.0 0.4 0.5 1.0 1.2 1.4 1.6 2.3 2.5 nan nan nan nan
0.0 0.0 0.0 0.0 0.0 0.0 0.0 0.0 0.0 0.0 0.0 0.0 0.0 0.0 0.0 0.0 0.0 0.0 0.0 0.0 0.0 0.0 0.3 0.2 1.0 2.6 2.9 2.1 1.5 2.1 2.6 1.2 1.9 1.9 1.7 1.7 1.8 1.7 1.3 2.1 3.9 2.9 nan nan
0.0 0.0 0.0 0.0 0.0 0.0 0.0 0.0 0.0 0.0 0.0 0.0 0.0 0.0 0.0 0.0 0.0 0.0 0.0 0.0 0.0 0.1 0.2 0.4 0.7 1.1 1.0 0.8 1.4 1.6 1.9 2.8 2.6 2.6 2.5 2.3 2.8 2.7 2.2 2.5 2.9 2.7 2.2 1.4
0.0 0.0 0.0 0.0 0.0 0.0 0.0 0.0 0.0 0.0 0.0 0.0 0.0 0.0 0.0 0.0 0.0 0.0 0.0 0.0 0.2 0.3 0.1 3.3 0.7 1.1 1.4 1.7 2.1 2.4 2.3 1.2 2.1 3.3 3.2 2.9 2.4 2.8 2.4 2.9 2.8 3.4 3.3 3.5
0.0 0.0 0.0 0.0 0.0 0.0 0.0 0.0 0.0 0.1 0.0 0.0 0.0 0.0 0.0 0.0 0.1 0.1 0.2 0.2 1.4 2.3 2.1 1.7 4.7 4.4 3.6 3.4 3.2 4.7 4.2 3.7 0.9 2.5 2.4 2.6 3.1 3.1 2.8 3.9 4.4 3.8 6.5 10.2
0.2 0.1 0.0 0.0 0.0 0.0 0.0 0.0 0.0 0.0 0.0 0.1 0.3 2.3 3.6 3.2 0.9 1.2 1.6 1.4 3.3 6.0 5.3 5.2 4.6 4.8 4.4 3.8 3.2 3.2 2.9 2.5 2.4 2.9 2.4 3.8 3.0 2.4 3.8 3.6 3.5 4.4 6.0 5.4
0.7 0.9 0.7 0.5 0.3 0.1 0.1 0.1 0.2 0.2 2.2 2.3 5.4 5.2 4.6 5.4 4.5 7.2 7.8 10.6 12.1 7.9 10.7 6.5 1.5 2.5 3.0 2.4 0.9 1.8 2.5 4.1 2.5 1.7 2.2 5.9 6.5 3.1 6.1 7.6 6.0 7.7 5.1 5.5
0.7 0.5 1.2 1.7 2.1 2.0 2.7 3.2 4.4 5.6 5.9 5.2 9.8 11.9 10.9 13.4 11.8 13.0 9.7 9.5 7.8 7.7 5.2 4.3 2.9 2.1 1.3 0.5 1.5 1.1 2.4 5.2 2.9 5.3 7.2 3.9 9.6 13.7 9.3 7.2 7.9 9.5 16.3 12.8
3.3 3.6 3.9 4.1 6.9 8.0 10.2 11.8 10.2 8.8 11.0 12.5 12.3 14.4 14.4 12.0 10.5 11.3 7.6 4.7 6.5 3.7 2.1 0.7 1.2 1.0 0.3 0.3 0.4 3.2 5.8 8.6 8.9 6.3 6.6 13.1 17.3 14.0 14.3 15.1 14.2 16.6 19.8 15.4
4.2 4.8 6.9 6.0 4.4 5.9 6.7 6.8 5.0 8.0 8.9 12.0 15.6 16.9 12.4 7.5 8.0 6.9 7.7 3.3 3.4 2.4 1.7 1.4 0.8 3.0 2.1 4.7 1.7 7.5 4.0 4.7 6.9 7.0 8.1 12.1 13.5 20.1 21.3 18.4 17.7 19.4 18.8 19.4
4.6 4.2 4.5 5.1 4.6 5.1 4.4 4.5 8.9 7.2 11.1 10.7 12.3 8.9 6.0 4.4 4.0 4.9 5.5 1.2 0.9 3.3 1.0 2.7 4.4 5.2 5.5 8.9 8.9 10.4 10.5 10.9 10.9 9.7 10.4 16.1 15.5 26.0 15.9 15.3 16.8 17.0 22.8 15.4
4.2 3.8 4.2 4.0 3.3 1.9 2.7 5.3 3.0 3.5 8.7 5.7 7.2 9.5 4.1 7.2 8.8 1.2 1.1 5.3 5.5 14.4 11.4 6.5 8.4 5.8 6.3 12.4 12.8 14.5 13.1 14.8 15.6 18.3 9.1 9.0 24.6 19.4 15.5 23.0 14.6 17.6 18.4 15.8
4.7 5.0 4.5 4.8 3.0 5.0 3.0 3.4 2.5 2.8 2.3 2.4 2.3 1.5 0.7 1.2 6.8 3.4 5.4 5.2 6.2 4.8 7.4 6.4 6.3 7.1 15.8 16.8 16.2 17.0 17.0 15.8 17.6 20.4 15.0 20.6 18.5 27.2 23.8 19.7 24.3 23.6 23.6 19.6
4.6 5.3 5.2 4.2 4.0 3.5 3.3 2.8 3.4 3.5 2.0 4.9 3.1 10.9 7.9 4.5 3.8 3.6 5.3 6.3 4.2 6.0 5.3 13.5 18.5 18.5 17.6 13.3 15.3 15.8 12.8 9.4 14.2 14.7 17.6 16.7 15.9 13.0 17.1 15.9 22.5 26.8 31.6 32.7
4.5 2.0 3.7 3.3 3.0 2.9 2.2 1.3 3.0 3.9 4.7 8.6 7.8 7.6 4.8 8.2 10.1 6.6 8.2 12.1 11.9 13.3 13.5 16.5 14.6 10.8 9.7 15.5 13.2 12.3 12.2 12.6 10.7 11.0 22.5 24.7 23.5 30.8 28.0 27.9 31.7 31.5 28.0 25.3
Water_Equivalent
0.00 0.00 0.00 0.00 0.00 0.00 0.00 0.00 0.01 0.00 0.00 0.00 0.00 0.00 0.00 0.00 0.00 0.00 0.00 0.00 0.00 0.00 0.00 0.00 0.00 0.00 0.00 0.00 0.00 0.00 0.00 0.00 0.00 0.00 0.00 0.00 0.00 0.00 0.00 0.00 0.00 0.00 0.00 0.00
0.00 0.00 0.00 0.00 0.00 0.00 0.00 0.00 0.00 0.00 0.00 0.00 0.00 0.00 0.00 0.00 0.00 0.00 0.00 0.00 0.00 0.00 0.00 0.00 0.00 0.00 0.00 0.00 0.00 0.00 0.00 0.00 0.00 0.00 0.00 0.00 0.00 0.00 0.00 0.00 0.00 0.00 0.00 0.00
0.09 0.00 0.00 0.08 0.00 0.00 0.00 0.00 0.00 0.00 0.00 0.00 0.00 0.00 0.00 0.00 0.00 0.00 0.00 0.00 0.00 0.00 0.00 0.00 0.00 0.00 0.00 0.00 0.00 0.00 0.00 0.00 0.00 0.00 0.00 0.00 0.00 0.00 0.00 0.00 0.00 0.00 0.00 0.00
0.31 0.15 0.60 0.01 0.00 0.00 0.00 0.00 0.00 0.00 0.00 0.00 0.00 0.00 0.00 0.00 0.00 0.00 0.00 0.00 0.00 0.00 0.00 0.00 0.00 0.00 0.00 0.00 0.00 0.00 0.00 0.00 0.00 0.00 0.00 0.00 0.00 0.00 0.00 0.00 0.00 0.00 0.00 0.00
0.73 0.38 0.09 0.01 0.00 0.00 0.00 0.00 0.00 0.00 0.00 0.00 0.00 0.00 0.00 0.00 0.00 0.00 0.00 0.00 0.00 0.00 0.00 0.00 0.00 0.00 0.00 0.00 0.00 0.00 0.00 0.00 0.00 0.00 0.00 0.00 0.00 0.00 0.00 0.00 0.00 0.00 0.00 0.00
0.31 0.09 0.57 0.00 0.00 0.00 0.00 0.01 0.00 0.00 0.00 0.00 0.00 0.01 0.00 0.00 0.00 0.00 0.00 0.00 0.00 0.00 0.00 0.00 0.00 0.00 0.00 0.00 0.00 0.00 0.00 0.00 0.00 0.00 0.00 0.00 0.00 0.00 0.00 0.00 0.00 0.00 0.00 0.00
0.18 0.31 0.09 0.00 0.00 0.00 0.14 0.01 0.00 0.00 0.00 0.00 0.00 0.00 0.00 0.00 0.00 0.00 0.00 0.00 0.00 0.00 0.00 0.00 0.00 0.00 0.00 0.00 0.00 0.00 0.00 0.00 0.00 0.00 0.00 0.00 0.00 0.00 0.00 0.00 0.00 0.00 0.00 0.00
0.23 0.24 0.36 0.00 0.00 0.01 0.01 0.00 0.00 0.00 0.00 0.00 0.00 0.00 0.00 0.00 0.00 0.00 0.00 0.00 0.00 0.00 0.00 0.00 0.00 0.00 0.00 0.00 0.00 0.00 0.00 0.00 0.00 0.00 0.00 0.00 0.00 0.00 0.00 0.00 0.00 0.00 0.06 0.07
0.02 0.07 0.00 0.00 0.00 0.00 0.00 0.00 0.00 0.00 0.00 0.00 0.00 0.00 0.00 0.00 0.00 0.00 0.00 0.00 0.00 0.00 0.00 0.00 0.00 0.00 0.00 0.00 0.00 0.00 0.00 0.00 0.00 0.00 0.00 0.00 0.00 0.00 0.00 0.00 0.06 0.02 0.11 0.20
0.00 0.00 0.00 0.00 0.00 0.00 0.00 0.00 0.00 0.00 0.00 0.00 0.00 0.00 0.00 0.00 0.00 0.00 0.00 0.00 0.00 0.00 0.00 0.00 0.00 0.00 0.00 0.00 0.00 0.00 0.00 0.00 0.00 0.00 0.00 0.00 0.00 0.00 0.00 0.07 0.13 0.12 0.16 0.14
0.00 0.00 0.00 0.00 0.00 0.00 0.00 0.00 0.00 0.00 0.00 0.00 0.00 0.00 0.00 0.00 0.00 0.00 0.00 0.00 0.00 0.00 0.00 0.00 0.00 0.00 0.00 0.00 0.00 0.00 0.00 0.00 0.00 0.00 0.00 0.00 0.00 0.00 0.06 0.02 0.12 0.15 0.14 0.23
0.04 0.00 0.00 0.00 0.00 0.00 0.00 0.00 0.00 0.00 0.00 0.00 0.00 0.00 0.00 0.00 0.00 0.00 0.00 0.00 0.00 0.00 0.00 0.00 0.00 0.00 0.00 0.00 0.00 0.00 0.00 0.00 0.05 0.07 0.06 0.00 0.00 0.02 nan nan nan nan nan 0.42
0.00 0.00 0.00 0.00 0.00 0.00 0.00 0.00 0.00 0.00 0.00 0.00 0.00 0.00 0.00 0.00 0.00 nan 0.00 0.00 0.01 0.06 0.06 0.05 0.02 0.02 0.00 0.00 0.00 0.00 0.00 0.01 0.11 0.11 0.20 0.22 0.24 0.27 0.35 0.38 nan nan nan nan
0.00 0.00 0.00 0.00 0.00 0.00 0.00 0.00 0.00 0.00 0.00 0.00 0.00 0.00 0.00 0.00 0.00 0.00 0.00 0.00 0.01 0.00 0.04 0.04 0.17 0.43 0.55 0.36 0.25 0.35 0.42 0.38 0.39 0.37 0.31 0.31 0.33 0.32 0.28 0.40 0.69 0.53 nan nan
0.00 0.00 0.00 0.00 0.00 0.00 0.00 0.00 0.00 0.00 0.00 0.00 0.00 0.00 0.00 0.00 0.00 0.00 0.00 0.01 0.01 0.02 0.04 0.08 0.13 0.16 0.17 0.13 0.21 0.26 0.32 0.46 0.45 0.48 0.48 0.45 0.54 0.52 0.43 0.49 0.51 0.47 0.39 0.27
0.00 0.00 0.00 0.00 0.00 0.00 0.00 0.00 0.00 0.00 0.00 0.00 0.00 0.00 0.00 0.00 0.00 0.00 0.00 0.00 0.04 0.06 0.02 0.62 0.11 0.14 0.21 0.26 0.31 0.32 0.31 0.33 0.37 0.53 0.55 0.53 0.47 0.53 0.44 0.51 0.49 0.58 0.53 0.53
0.00 0.00 0.00 0.00 0.00 0.01 0.00 0.00 0.00 0.01 0.00 0.00 0.00 0.00 0.00 0.01 0.01 0.02 0.02 0.03 0.27 0.41 0.34 0.23 0.52 0.52 0.43 0.42 0.41 0.58 0.51 0.46 0.30 0.39 0.40 0.45 0.57 0.56 0.49 0.65 0.72 0.62 1.00 1.63
0.04 0.02 0.01 0.00 0.00 0.01 0.00 0.00 0.00 0.00 0.00 0.01 0.07 0.49 0.71 0.62 0.12 0.15 0.20 0.21 0.48 0.74 0.56 0.54 0.50 0.55 0.50 0.43 0.35 0.38 0.40 0.37 0.40 0.54 0.45 0.73 0.56 0.46 0.66 0.60 0.58 0.69 0.92 0.88
0.11 0.15 0.13 0.07 0.04 0.01 0.01 0.02 0.02 0.03 0.42 0.41 0.92 0.79 0.71 0.82 0.52 0.75 0.83 1.40 1.59 0.79 0.99 0.66 0.51 0.37 0.30 0.27 0.16 0.28 0.46 0.82 0.51 0.34 0.45 1.84 1.17 0.57 0.97 1.23 0.96 1.26 0.80 0.82
0.10 0.07 0.16 0.23 0.29 0.26 0.34 0.42 0.63 0.71 0.76 0.69 1.42 1.65 1.22 1.66 1.52 1.68 1.18 1.00 0.74 0.78 0.50 0.41 0.28 0.20 0.13 0.09 0.46 0.23 0.54 1.12 0.60 1.10 1.40 0.72 1.65 2.27 1.47 2.28 1.22 1.51 2.64 2.02
0.49 0.57 0.58 0.59 0.90 1.19 1.52 1.67 1.29 0.93 1.18 1.58 1.69 1.94 1.81 1.44 1.38 1.64 0.97 0.50 0.54 0.36 0.21 0.17 0.15 0.16 0.06 0.07 0.12 0.72 1.26 1.79 1.84 1.22 1.25 2.43 3.12 2.37 2.27 2.65 2.44 2.90 3.28 2.52
0.58 0.62 0.93 0.78 0.53 0.67 0.80 0.78 0.55 1.01 1.07 1.54 2.13 2.32 1.75 0.81 1.05 0.93 1.14 0.40 0.36 0.79 0.30 0.28 0.17 0.97 0.65 1.53 0.40 1.71 0.86 0.99 1.35 1.35 1.50 2.29 2.34 3.29 3.32 2.88 2.76 3.20 3.21 3.31
0.56 0.50 0.53 0.62 0.57 0.53 0.47 0.51 1.22 1.03 1.56 1.47 1.71 1.20 0.84 0.53 0.49 0.70 0.73 0.10 0.19 1.04 0.24 0.62 1.42 1.72 1.83 2.03 2.01 2.26 2.21 2.17 2.12 1.83 1.96 2.92 2.68 4.15 2.22 2.16 2.52 2.60 3.68 2.43
0.48 0.43 0.46 0.43 0.37 0.20 0.29 0.49 0.29 0.33 1.25 0.74 0.99 1.41 0.58 1.20 1.70 0.25 0.25 1.75 1.80 3.75 2.72 1.52 2.22 1.92 2.09 2.62 2.50 2.80 2.55 2.75 2.70 2.97 1.48 2.77 4.07 2.87 2.25 3.25 1.95 2.55 2.78 2.42
0.53 0.57 0.51 0.55 0.30 0.52 0.28 0.31 0.23 0.25 0.21 0.22 0.20 0.14 0.13 0.28 1.36 0.70 1.20 1.15 1.97 1.26 1.60 2.00 2.07 2.35 3.11 3.23 2.92 2.88 2.83 2.43 2.70 3.13 2.19 3.30 2.96 4.26 3.66 2.71 3.12 3.33 3.28 2.88
0.46 0.53 0.52 0.39 0.40 0.37 0.35 0.31 0.40 0.42 0.33 0.93 0.57 2.15 1.58 0.91 0.79 0.75 1.12 1.73 0.87 1.85 1.07 2.77 3.62 3.59 3.34 2.32 2.63 2.65 2.00 1.44 2.06 2.02 2.35 2.30 2.27 1.82 2.25 2.07 2.87 3.67 4.56 4.99
0.47 0.37 0.39 0.34 0.29 0.31 0.27 0.22 0.55 0.68 1.05 1.63 1.38 1.43 0.88 1.52 1.93 1.54 2.32 2.36 2.31 2.58 2.65 3.28 2.85 2.73 1.66 2.69 2.21 1.91 1.78 1.86 2.76 1.47 2.66 3.11 2.91 4.04 3.56 3.63 4.21 4.65 3.87 3.31
SL_Ratio
nan nan nan nan nan nan nan nan 3.1 nan nan nan nan nan nan nan nan nan nan nan nan nan nan nan nan nan nan nan nan nan nan nan nan nan nan nan nan nan nan nan nan nan nan nan
nan nan nan nan nan nan nan nan nan nan nan nan nan nan nan nan nan nan nan nan nan nan nan nan nan nan nan nan nan nan nan nan nan nan nan nan nan nan nan nan nan nan nan nan
4.2 nan 5.0 4.2 nan nan nan nan nan nan nan nan nan nan nan nan nan nan nan nan nan nan nan nan nan nan nan nan nan nan nan nan nan nan nan nan nan nan nan nan nan nan nan nan
4.0 4.2 5.8 4.6 nan nan nan nan nan nan nan nan nan nan nan nan nan nan nan nan nan nan nan nan nan nan nan nan nan nan nan nan nan nan nan nan nan nan nan nan nan nan nan nan
4.5 4.9 4.3 4.4 nan nan nan nan nan nan nan nan nan nan nan nan nan nan nan nan nan nan nan nan nan nan nan nan nan nan nan nan nan nan nan nan nan nan nan nan nan nan nan nan
4.7 5.6 4.5 4.0 nan nan nan 3.0 nan nan nan nan nan 2.4 nan nan nan nan nan nan nan nan nan nan nan nan nan nan nan nan nan nan nan nan nan nan nan nan nan nan nan nan nan nan
3.7 4.4 3.4 nan nan nan 4.3 4.9 nan nan nan nan nan nan nan nan nan nan nan nan nan nan nan nan nan nan nan nan nan nan nan nan nan nan nan nan nan nan nan nan nan 3.3 2.7 3.3
4.2 4.1 4.1 nan nan 4.1 2.6 nan nan nan nan nan nan nan nan nan nan nan nan nan nan nan nan nan nan nan nan nan nan nan nan nan nan nan nan nan nan nan nan nan nan 2.7 3.9 3.7
4.0 3.6 nan nan nan nan nan nan nan nan nan nan nan nan nan nan nan nan nan nan nan nan nan nan nan nan nan nan nan nan nan nan nan nan nan nan nan nan nan nan 3.5 3.5 3.9 4.0
2.9 nan nan nan nan nan nan nan nan nan nan nan nan nan nan nan nan nan nan nan nan nan nan nan nan nan nan nan nan nan nan nan nan nan nan nan nan nan nan 3.3 3.7 3.9 4.1 4.1
nan nan nan nan nan nan nan nan nan nan nan nan nan nan nan nan nan nan nan nan nan nan nan nan nan nan nan nan nan nan nan nan nan 2.2 nan nan nan nan 3.5 3.7 3.5 3.9 4.1 5.0
2.5 nan nan nan nan nan nan nan nan nan nan nan nan nan nan nan nan nan nan nan nan nan nan nan nan nan nan nan nan nan nan nan 3.4 3.5 3.5 nan nan 7.3 nan nan nan nan nan 4.6
nan nan nan nan nan nan nan nan nan nan nan nan nan nan nan nan nan nan nan nan 5.9 3.6 5.6 5.9 4.6 3.0 3.3 nan nan nan 1.7 2.3 3.7 4.2 4.9 5.4 5.7 6.0 6.5 6.6 nan nan nan nan
nan nan nan nan nan nan nan nan nan nan nan nan nan nan nan nan nan nan nan 5.0 4.3 4.6 6.0 5.0 6.2 6.0 5.3 5.8 5.9 6.0 6.1 3.0 4.8 5.1 5.4 5.6 5.3 5.3 4.9 5.2 5.7 5.4 nan nan
nan nan nan nan nan nan nan nan nan nan nan nan nan 2.7 0.0 nan nan 10.0 5.0 2.5 2.9 4.3 5.1 5.3 5.8 6.8 5.8 6.3 6.5 6.2 5.9 6.1 5.9 5.4 5.1 5.0 5.2 5.2 5.0 5.1 5.6 5.7 5.7 5.1
nan nan nan nan nan nan nan nan nan 6.3 6.7 6.4 6.7 8.0 nan nan 8.3 8.5 8.2 10.0 4.3 5.3 7.1 5.4 6.4 7.7 6.7 6.4 6.9 7.4 7.4 3.6 5.7 6.3 5.9 5.5 5.2 5.3 5.5 5.7 5.8 6.0 6.3 6.6
nan nan nan nan 0.0 6.8 6.3 nan 6.0 6.4 7.8 nan nan 3.3 5.0 5.0 5.6 8.0 9.4 5.9 5.2 5.7 6.2 7.5 8.9 8.5 8.3 8.2 8.0 8.0 8.2 7.9 3.0 6.4 6.0 5.8 5.5 5.5 5.7 6.0 6.1 6.2 6.5 6.2
4.1 4.9 5.3 7.0 7.3 7.1 7.3 5.0 10.0 10.0 8.0 8.5 4.8 4.7 5.1 5.2 7.4 7.9 7.8 6.8 6.9 8.0 9.6 9.5 9.2 8.8 8.9 9.0 9.1 8.5 7.2 6.8 5.8 5.4 5.4 5.2 5.5 5.2 5.7 6.0 6.1 6.4 6.5 6.2
6.4 5.9 5.0 6.6 6.9 7.7 8.2 8.6 8.1 7.9 5.2 5.7 5.9 6.6 6.4 6.6 8.7 9.6 9.5 7.5 7.6 10.0 10.8 9.9 3.0 6.7 10.2 9.0 6.0 6.4 5.4 4.9 4.9 5.2 5.0 3.2 5.5 5.5 6.3 6.2 6.2 6.1 6.4 6.7
7.4 7.5 7.7 7.5 7.3 7.8 7.7 7.6 6.9 7.9 7.8 7.6 6.9 7.2 8.9 8.1 7.8 7.8 8.2 9.5 10.6 9.9 10.4 10.5 10.4 10.5 10.3 6.0 3.3 4.8 4.5 4.6 4.8 4.8 5.2 5.3 5.8 6.0 6.4 3.2 6.5 6.3 6.2 6.4
6.6 6.4 6.7 7.1 7.6 6.7 6.7 7.0 7.9 9.4 9.3 7.9 7.3 7.4 7.9 8.3 7.6 6.9 7.9 9.4 12.0 10.2 10.1 4.1 7.6 6.0 4.4 4.1 3.6 4.4 4.6 4.8 4.9 5.2 5.3 5.4 5.6 5.9 6.3 5.7 5.8 5.7 6.0 6.1
7.4 7.8 7.3 7.7 8.2 8.8 8.4 8.7 9.0 7.9 8.4 7.8 7.3 7.3 7.1 9.3 7.6 7.4 6.8 8.1 9.5 3.0 5.7 5.1 4.7 3.1 3.2 3.1 4.4 4.4 4.7 4.7 5.1 5.2 5.4 5.3 5.8 6.1 6.4 6.4 6.4 6.1 5.9 5.8
8.2 8.4 8.4 8.2 8.1 9.7 9.3 8.9 7.3 6.9 7.1 7.3 7.2 7.4 7.1 8.4 8.1 7.0 7.6 11.7 4.6 3.2 4.2 4.4 3.1 3.0 3.0 4.4 4.4 4.6 4.8 5.0 5.2 5.3 5.3 5.5 5.8 6.3 7.2 7.0 6.7 6.5 6.2 6.3
8.7 8.8 9.2 9.2 9.1 9.4 9.4 10.7 10.5 10.6 7.0 7.6 7.3 6.8 7.2 6.0 5.2 4.9 4.4 3.0 3.0 3.8 4.2 4.3 3.8 3.0 3.0 4.7 5.1 5.2 5.2 5.4 5.8 6.2 6.1 3.2 6.1 6.8 6.9 7.1 7.5 6.9 6.6 6.5
8.9 8.8 9.0 8.8 9.9 9.6 10.7 11.1 10.9 11.3 11.2 10.9 11.3 10.8 5.6 4.3 5.0 4.9 4.5 4.5 3.2 3.8 4.6 3.2 3.0 3.0 5.1 5.2 5.6 5.9 6.0 6.5 6.5 6.5 6.8 6.2 6.2 6.4 6.5 7.3 7.8 7.1 7.2 6.8
10.1 9.9 10.0 10.6 9.8 9.6 9.4 9.2 8.6 8.5 6.0 5.3 5.4 5.1 5.0 5.0 4.8 4.7 4.7 3.7 4.8 3.2 4.9 4.9 5.1 5.2 5.3 5.7 5.8 6.0 6.4 6.5 6.9 7.3 7.5 7.3 7.0 7.1 7.6 7.7 7.9 7.3 6.9 6.6
9.6 5.4 9.6 9.9 10.3 9.4 8.1 6.0 5.4 5.8 4.5 5.3 5.7 5.3 5.5 5.4 5.2 4.3 3.5 5.1 5.2 5.1 5.1 5.0 5.1 3.9 5.8 5.7 6.0 6.4 6.8 6.8 3.9 7.5 8.4 8.0 8.1 7.6 7.9 7.7 7.5 6.8 7.2 7.7